ATLAS 5 CENTAUR R/B, 46919

Orbit data source: Space-Track

ATLAS 5 CENTAUR R/B, 46919 is space debris originally from a launch on Fri, 13 Nov 2020 UTC launched from the Air Force Eastern Test Range (AFETR). Debris objects in space refer to the collection of defunct objects orbiting the Earth. Examples of debris include non-operational satellites, rocket bodies, and fragments generated from explosions, collisions, or faulty payload assembly.

Loading next visibility...
Identifier
46919, 2020-083B
Orbit
Active
Country
Flag of USUS
Related business
Flag of USUnited Launch Alliance/Lockheed Martin (US)
Manufacturer
ULA Decatur
Mission
Spacecraft
Bus & Motor
CENTAUR SEC, RL10C-1
Mass
~2,020 kg wet, 2,020 kg dry
Launch date (UTC)
2020-11-13 (5 years ago)
Launch vehicle
Unknown
Launch site
Air Force Eastern Test Range (AFETR)
Object type
Payload
Rocket body
Debris
Shape & HBR
Cyl + 1 Nozzle, 5.8 m
Radar Cross Section
32.260 m²

Expand to show TLE details & history
Last TLE update: 9 hours ago

TLE from 9 hours ago
0 ATLAS 5 CENTAUR R/B
1 46919U 20083B   25343.01907034 -.00000045  00000-0  00000+0 0  9992
2 46919  58.9607 352.8598 0133373 218.1265 140.9655  3.86387959 38134
Epoch: 2025-12-09T00:27Z
TLE epoch observation values (Epoch: 2025-12-09T00:27:27.677Z)
Latitude
0.00003°
Longitude
-92.01435°
Altitude
10,956.041 km
Speed
4.771 km/s
True Right ascension
23h 31m 26s
True Declination
0° 00' 00"
Sunlit
Object was in daylight at epoch
Visualization orbit readout
Latitude
Unknown
Longitude
Unknown
Altitude
Unknown
Speed
Unknown
Apparent Right ascension
Unknown
Apparent Declination
Unknown
Sunlit
N/A
Visualization observer readout
Local Sidereal Time
07:23:51
Azimuth
Unknown
Elevation
Unknown
Doppler factor
Unknown
Orbital elements
Apogee altitude
11,005.227 km
Perigee altitude
10,547.636 km
Semi-major axis
17,154.569 km
Eccentricity
0.01334
Inclination
58.9607°
RAAN
352.8598°
Arg. of periapsis
218.1265°
True anomaly
141.91568°
Mean anomaly
140.9655°
Eccentric anomaly
141.44181°
Mean motion
0.96599 °/min
Orbital period
372.67 mins
BSTAR
0
Loading maneuver chart data...
Computing Atmospheric mass density...
Loading historical data...
Loading historical data...
Loading historical data...
Loading historical data...
Loading historical data...
Loading historical data...
Loading historical data...
Other satellites on launch #83 in the year 2020 (2020-11-13 UTC)

Documentation

Showing up to 5 results
|